Edwards Air Force Base
KEDW : now visible

Airfield :











YOU CAN JOIN US ON...

 
LOGIN :

Register | Disclaimer

   EN    FR    IT 

 









Legend :    VFR   Marginal VFR   IFR   Intensive IFR   Very Intensive IFR
Visi :
Ceiling :
>= 8 km
>= 3000ft
5 to 8 km
1000 to 3000 ft
1500m to 5 km
500 to 1000 ft
800 to 1500m
200 to 500 ft
< 800m
< 200 ft
Symbols :   Thunderstorms  Fog  Heavy snow  Heavy precipitations  Wind > 20 kt







- Airport Elevation : 2312 ft


KEDW - Edwards Air Force Base

CURRENT METAR :
  • 162158Z 23019G27KT 90SM VCSH BKN100 BKN200 29/M02 A2987 RMK AO2A PK WND 23028/07 SLP092 T02911021

EXPIRED METARs :
  • 162058Z 23020G29KT 80SM VCSH SCT130 BKN250 29/M01 A2989 RMK AO2A PK WND 25029/50 SLP099 T02931010 57010
  • 161958Z 24022G24KT 80SM SCT150 BKN250 29/M01 A2989 RMK AO2A PK WND 25029/36 SLP099 T02921011

TAF TAF KEDW
Valid from the 16 at 18:00 until the 18 at 00:00 UTC


161800Z 1618/1724 23015G25KT 9999 BKN250 510009 QNH2988INS
BECMG 1620/1621 23025G35KT 9999 SCT130 BKN250 520009 QNH2984INS
BECMG 1702/1703 23012G18KT 9999 SKC QNH2987INS
BECMG 1705/1706 VRB06KT 9999 SKC QNH2988INS TX30/1623Z TN12/1714Z
No reported NOTAMs for that airfield.



MET'MAP, your aeronautical weather chart ! - Copyright ORBIFLY December 2007 - Disclaimer

ORBIFLY MET'MAP TEAM :

Programming & Development : Alexandra Zaïnal
Concept & Development : Baudouin d'Aumeries
Co-Development & Prog : Marc-Olivier Méhu
Technical & hardware support : Manuel Goepfert

Contact : metmap@orbifly.com




SOURCES & CREDITS :

   NOAA       Earth
Advisory